Theta_e
328 327 326 323 321 320 320 319 318 318 318 319 319 319 318 317 316 315 316 316 317 317 318 318 318 318 318 317 317 317 317 317 316 315 316 316 315 315 315 315 315 315 313 312 311 311 310 310 310 310 310 310 309 309 309 309 308 308 308 308 307 306 306 306 306 305 305 305 305 304 304 304 304 303 303 303 302 302 302 302 303 301 297 294 293
330 328 328 326 323 321 320 320 319 319 319 319 319 320 319 319 318 317 316 316 317 317 317 317 318 318 318 317 318 317 317 317 317 316 316 315 314 315 315 315 316 315 313 312 312 312 312 311 310 309 310 310 309 309 309 308 308 307 307 307 306 306 305 305 305 304 304 304 304 304 304 304 304 303 303 303 302 302 302 301 300 298 295 293 293
331 330 328 328 326 323 321 321 320 320 319 319 319 319 319 319 319 318 317 316 316 317 317 317 317 318 318 317 318 318 318 317 317 317 317 316 316 316 316 316 316 314 313 313 312 313 312 311 310 308 309 309 309 309 308 308 308 307 307 306 306 305 305 304 304 304 304 304 304 303 303 303 303 302 302 303 302 301 300 299 296 295 294 293 293
332 331 330 329 328 326 324 322 322 321 321 320 320 319 319 319 319 318 318 317 316 316 317 317 317 318 318 317 317 318 318 318 317 318 317 317 317 318 317 316 315 314 313 313 312 312 311 310 309 309 309 309 309 308 307 307 306 305 306 306 305 305 304 304 303 303 303 303 303 303 303 302 302 302 301 302 301 300 298 296 294 293 292 292 292
331 331 331 330 329 328 327 325 324 323 322 322 321 320 320 319 319 319 319 318 317 316 316 317 318 318 318 318 317 317 317 318 318 317 317 317 317 317 317 316 315 315 313 312 312 311 309 309 309 310 310 310 309 308 306 305 305 303 303 304 304 303 302 302 301 302 302 303 303 302 302 302 301 302 301 300 299 298 297 295 294 292 292 293 293
330 330 330 330 329 329 328 328 327 325 325 324 323 322 321 320 320 319 319 318 317 316 316 317 318 318 318 318 318 317 317 317 317 318 318 317 317 316 317 316 315 315 313 312 312 310 308 308 308 308 308 307 307 308 306 304 303 303 302 301 301 301 301 300 299 301 302 302 301 300 300 299 299 300 300 298 297 296 295 293 293 292 293 295 295
330 330 329 329 329 328 328 328 327 327 327 326 325 324 323 322 321 320 319 318 318 316 316 316 317 318 318 318 318 317 317 316 316 316 317 317 317 317 317 316 316 315 314 313 312 311 309 307 306 305 305 305 305 306 306 304 303 302 301 300 300 300 300 300 298 300 300 299 298 297 297 296 296 296 295 295 295 294 293 292 292 293 294 295 295
330 330 329 329 328 328 328 327 327 327 327 327 327 326 325 324 323 322 321 319 318 317 316 316 316 317 317 318 318 318 317 317 316 315 316 316 317 317 317 316 316 316 315 314 313 312 310 308 306 304 304 305 305 303 304 304 303 302 301 300 300 299 299 299 298 298 297 296 295 295 295 294 295 294 294 295 293 293 293 292 292 293 295 294 294
330 329 328 328 327 327 327 327 326 326 327 327 327 327 327 326 325 324 323 321 320 318 317 316 315 316 317 318 318 318 318 317 316 315 315 315 316 317 317 317 316 316 315 315 314 313 312 310 307 305 305 304 304 303 302 303 303 304 302 301 303 302 298 298 297 296 296 295 294 295 295 294 294 295 296 295 293 292 292 291 291 292 292 292 294
329 329 328 328 327 327 327 327 327 326 326 327 327 327 327 327 326 325 324 323 322 321 319 316 314 314 315 317 318 318 318 318 317 316 316 315 315 316 316 316 316 316 316 315 314 314 313 312 309 306 305 304 303 302 301 301 302 304 303 300 303 302 299 299 298 295 295 294 294 294 294 294 294 295 295 294 293 291 291 291 290 290 290 290 291
329 328 328 327 327 327 327 326 326 326 325 325 326 326 326 325 325 325 324 323 323 322 321 319 315 314 313 314 316 317 318 318 318 317 316 316 316 315 315 315 315 316 316 315 314 314 313 313 310 308 306 304 303 301 300 300 301 305 304 302 303 302 300 302 300 297 295 294 293 293 292 293 293 293 293 292 291 291 291 290 289 289 289 289 290
331 331 330 328 327 327 326 326 326 326 326 326 325 325 325 325 325 324 324 323 323 322 322 321 319 316 314 313 315 316 317 318 318 317 317 316 316 315 315 314 315 315 315 315 314 314 313 313 311 308 307 305 303 302 300 299 301 304 304 304 304 303 302 303 302 300 298 295 294 293 294 295 294 292 291 291 291 291 290 289 289 289 289 289 290
328 329 330 328 327 328 328 328 328 328 327 328 328 327 327 326 325 325 325 324 324 323 321 322 321 318 316 316 316 317 317 318 318 318 317 317 317 316 315 315 314 314 314 314 314 313 313 312 311 309 308 306 304 303 300 298 299 301 302 304 305 304 304 303 302 301 300 299 298 297 298 298 297 294 291 291 292 291 290 289 289 289 289 289 289
328 327 329 330 330 330 330 328 327 326 326 326 326 327 328 327 326 325 326 324 324 325 322 321 321 320 319 318 317 317 318 318 318 318 318 317 317 316 316 316 315 314 314 313 313 313 313 312 311 310 309 307 306 305 301 297 297 299 300 301 302 303 304 303 302 302 301 301 300 299 299 297 296 294 292 291 291 291 291 290 290 289 289 288 290
330 327 329 332 330 327 327 327 327 328 327 326 326 327 328 329 328 326 326 324 324 325 324 323 321 321 319 316 315 316 317 319 319 319 319 318 317 317 316 316 316 315 314 314 313 313 312 312 312 311 310 309 309 307 303 299 296 297 298 297 296 298 302 303 302 302 301 301 300 299 299 297 294 291 289 289 291 293 292 291 292 291 289 289 291
331 330 329 330 329 324 324 326 326 326 326 326 327 328 328 327 326 325 326 326 325 325 325 324 322 322 320 316 314 314 315 319 321 320 320 319 318 318 317 316 315 315 315 315 314 313 312 312 312 312 311 311 310 310 308 303 297 295 296 296 294 293 296 300 303 302 301 301 301 299 299 298 296 292 289 288 291 292 292 291 292 291 290 291 291
331 333 332 331 329 325 326 331 328 323 323 324 324 323 324 324 323 323 325 326 326 325 324 324 323 323 323 320 316 314 316 320 320 319 319 319 319 318 318 317 316 315 315 315 314 313 312 312 312 312 312 311 311 310 308 302 297 296 295 295 294 292 292 295 299 302 302 301 300 300 299 298 298 295 290 289 290 292 292 291 290 291 292 292 293
326 328 330 330 327 325 327 330 328 324 324 326 326 325 325 325 325 326 327 326 326 325 322 322 323 323 323 323 320 318 319 320 319 319 319 319 319 319 319 318 317 316 316 316 315 315 314 313 312 311 311 311 311 311 307 300 297 295 295 295 294 292 291 292 295 297 300 301 301 300 298 298 298 295 291 291 292 291 291 290 289 290 292 293 294
323 324 326 326 327 329 330 329 327 325 325 327 328 327 326 326 327 328 328 327 327 326 323 322 322 323 323 323 322 321 320 319 320 319 319 319 320 319 319 318 317 317 317 316 316 316 315 314 312 311 311 311 310 310 306 301 297 295 294 294 293 291 291 292 293 294 295 298 299 299 298 297 296 292 290 291 291 290 290 290 291 292 292 294 295
323 323 324 323 324 327 329 330 330 329 326 325 325 325 325 325 326 328 328 326 325 325 324 323 323 324 324 323 322 321 319 319 320 319 318 318 319 319 319 318 317 317 317 317 317 316 315 314 313 312 311 310 310 309 306 301 298 297 295 293 292 291 290 291 292 293 291 292 296 296 295 294 292 289 288 289 289 290 291 291 291 292 293 294 295
323 323 324 324 324 325 326 329 330 329 327 324 325 325 323 320 320 324 325 325 324 324 325 324 324 323 322 321 321 321 320 319 319 319 317 316 316 318 319 318 318 319 319 318 318 317 316 315 314 312 311 310 309 308 306 302 299 298 295 292 291 291 290 290 291 291 290 290 291 292 290 289 288 287 288 288 288 289 289 290 291 292 293 295 296
321 323 323 324 325 326 327 327 328 328 327 326 326 324 321 318 320 323 324 325 326 326 325 324 324 323 322 320 321 322 321 319 320 320 318 317 316 317 319 318 318 320 320 319 318 317 316 315 314 313 312 311 309 307 306 303 300 299 295 291 290 290 291 290 290 289 289 289 289 289 288 287 287 287 287 287 287 287 288 289 291 292 294 296 296
321 321 322 323 324 324 324 325 325 325 325 325 323 321 321 323 325 326 325 326 327 326 324 323 323 322 322 321 321 321 321 320 321 321 320 318 317 318 319 318 318 320 320 319 318 317 315 315 315 315 313 312 310 309 307 304 301 298 294 291 290 291 291 289 289 289 289 288 288 288 287 287 287 287 287 287 287 287 288 289 292 294 295 296 295
319 319 320 320 321 321 321 321 321 321 321 320 319 321 325 328 327 327 327 327 326 325 324 324 323 322 321 322 322 321 321 320 320 320 319 317 317 319 320 319 318 319 319 318 318 316 315 316 316 315 314 314 313 311 309 305 301 298 294 292 292 292 290 289 289 289 288 288 288 287 287 287 287 288 287 287 287 288 288 291 294 295 294 294 294
316 317 317 317 318 318 318 318 319 319 319 319 319 321 324 325 325 326 325 324 324 324 323 322 322 322 321 321 321 321 321 320 320 320 319 317 315 316 317 318 317 318 318 317 317 316 315 316 316 315 314 313 313 312 310 307 304 299 295 294 294 292 290 289 289 288 288 288 287 287 287 287 288 288 287 288 289 290 290 292 294 293 291 292 292
315 315 315 316 316 316 316 317 317 317 317 319 319 320 321 322 322 322 322 321 321 322 322 322 321 321 321 321 320 319 319 318 318 317 317 316 315 315 316 316 316 316 316 317 317 315 314 315 315 315 314 313 312 312 311 310 307 302 297 295 294 292 290 289 288 288 288 287 287 287 287 288 288 287 288 291 293 293 292 293 293 291 290 290 290
314 314 315 315 315 315 315 315 315 316 316 316 317 318 319 320 321 322 322 322 322 321 321 320 319 319 318 318 317 316 314 314 314 315 315 315 316 316 315 315 314 314 315 316 315 314 314 314 314 315 315 314 313 312 311 310 307 302 297 294 293 291 289 289 288 288 287 287 287 287 288 289 288 288 292 294 294 293 293 293 293 291 290 289 289
314 314 314 314 314 314 314 314 314 314 314 315 315 316 316 317 317 318 319 319 318 318 317 317 317 317 317 316 313 311 312 314 316 318 318 316 316 317 316 314 313 313 314 314 313 314 314 313 314 315 315 314 313 312 310 309 307 302 297 292 291 290 289 288 288 287 286 287 287 288 289 290 289 292 295 295 294 293 294 294 293 291 290 290 289
314 314 314 314 314 314 314 314 313 313 313 313 313 313 314 314 314 314 314 314 314 314 315 316 316 315 315 313 311 311 314 317 318 319 319 318 317 318 316 314 313 312 312 312 312 313 313 312 314 314 314 313 311 310 309 308 306 301 296 292 289 290 289 288 287 286 286 287 288 290 291 291 292 294 295 294 294 294 294 293 292 291 291 290 290
314 314 314 314 314 314 314 314 313 313 313 313 312 312 312 312 312 312 312 312 312 312 312 312 312 311 310 311 313 314 316 318 319 318 318 318 318 317 317 315 313 311 311 311 311 311 311 312 313 313 312 311 310 309 308 308 304 299 294 290 288 289 288 286 286 286 287 288 290 292 292 292 293 295 294 294 294 294 293 293 292 291 290 290 290
314 315 314 314 314 314 314 314 314 314 313 313 312 312 312 312 312 312 311 311 310 310 311 311 311 310 309 311 314 316 316 317 318 316 316 317 317 317 316 315 313 312 312 312 310 310 310 310 312 312 311 309 308 307 307 306 301 296 292 289 287 287 287 286 286 287 288 290 292 292 292 293 295 294 294 294 294 293 293 292 291 291 290 290 290
315 315 315 315 315 315 314 314 314 314 314 313 313 312 312 312 312 312 311 311 310 310 310 310 310 310 309 310 312 315 316 317 317 316 316 317 317 316 317 316 314 313 313 312 310 310 310 309 309 310 310 307 306 306 305 303 298 294 291 289 287 287 286 286 287 288 290 292 292 292 293 295 295 294 293 293 293 292 292 291 291 290 290 289 287
315 315 315 315 314 314 315 314 314 314 314 314 313 313 313 313 313 313 312 311 310 311 310 309 309 309 309 309 311 313 315 315 316 316 316 316 316 317 316 316 315 314 313 312 311 310 308 307 307 308 307 306 304 304 302 301 298 294 291 288 287 287 286 287 288 291 292 293 293 294 295 295 294 293 293 293 292 292 291 291 290 290 288 286 285
315 314 314 314 314 314 314 314 314 314 314 314 314 313 313 313 313 313 312 311 311 310 309 309 308 309 309 309 310 311 313 315 315 315 315 315 316 316 316 316 316 314 313 312 311 309 307 306 306 306 306 304 303 302 301 300 298 295 291 288 287 287 287 289 291 293 293 293 294 295 295 294 294 293 293 292 292 291 291 290 289 287 285 284 283
315 315 315 315 314 314 314 314 314 314 314 315 314 314 314 313 313 313 312 312 311 311 310 309 308 309 311 310 309 310 312 313 313 313 314 314 315 316 315 315 315 314 313 311 310 309 306 305 306 306 305 303 302 301 300 299 297 294 290 288 288 289 290 292 293 293 293 294 295 295 294 294 293 293 292 292 291 290 290 288 286 284 283 283 283
315 315 315 315 315 315 314 314 314 314 314 314 314 314 314 314 313 313 313 312 311 311 310 309 308 309 312 312 312 311 311 311 312 312 313 314 315 315 315 315 314 313 313 311 309 308 306 305 305 305 303 302 301 300 298 297 295 293 291 291 291 292 293 293 293 293 294 295 295 294 294 293 293 292 292 291 290 289 287 285 284 283 283 283 283
315 315 315 315 315 314 314 314 314 314 314 314 314 314 314 313 313 313 312 312 312 311 311 309 308 309 311 312 312 313 313 313 313 314 314 315 315 315 315 315 314 313 312 311 309 307 305 304 304 304 302 300 299 298 296 295 294 292 292 292 292 292 292 293 294 295 295 295 294 294 293 293 292 291 290 289 288 286 284 283 283 283 283 282 282
314 314 314 314 314 314 314 313 314 314 314 313 313 313 313 313 313 312 312 311 311 311 311 310 308 308 309 311 311 312 313 314 314 314 314 314 314 314 315 315 314 312 311 311 309 307 304 304 304 303 301 299 297 295 293 291 291 291 291 290 290 291 293 294 295 295 295 294 293 293 292 292 291 290 289 287 285 284 283 283 283 282 282 281 281
314 314 314 314 314 314 313 313 313 313 313 313 313 313 313 313 312 312 312 311 311 311 310 310 309 308 308 309 309 310 311 313 313 313 312 313 313 314 314 314 313 312 310 309 308 306 304 304 302 301 299 297 295 293 291 289 289 290 290 291 292 294 295 296 295 295 294 293 293 292 291 290 289 288 286 285 283 283 283 282 282 281 281 281 281
314 314 314 314 314 314 314 313 313 313 312 312 312 312 312 312 312 311 311 311 310 310 310 310 309 308 307 307 307 308 309 310 311 312 312 313 313 313 313 313 312 311 310 309 307 306 305 304 301 299 298 296 294 292 291 290 290 290 291 292 295 296 296 295 295 294 293 292 292 291 290 289 287 285 284 283 283 283 282 282 281 281 281 281 280
314 314 314 314 314 314 314 313 313 312 312 312 312 312 311 311 311 311 311 311 310 310 310 309 309 307 306 306 307 309 309 310 311 312 313 313 313 312 312 311 310 309 308 307 306 306 304 302 300 298 297 296 295 293 292 292 292 292 292 295 296 295 295 295 294 293 292 292 291 290 288 286 284 283 283 283 282 282 281 281 281 281 280 280 280
313 314 313 314 314 313 314 313 312 312 312 311 311 311 311 311 311 311 310 310 310 309 309 309 308 307 306 305 306 307 307 309 311 312 312 313 312 311 310 310 308 307 306 305 305 305 303 302 300 298 296 296 295 294 293 292 292 292 294 296 296 295 295 294 293 292 291 290 289 287 285 284 283 283 283 282 282 281 281 280 280 280 280 279 279
313 313 313 313 313 313 313 313 313 312 312 311 311 310 310 310 310 310 310 310 309 309 308 308 308 306 305 304 305 306 307 307 309 310 311 311 311 311 310 309 308 306 304 303 303 303 302 301 299 297 296 295 293 292 292 291 292 294 296 296 295 295 294 293 292 291 290 289 287 285 284 283 283 283 282 282 281 281 280 280 280 279 279 279 278
313 313 313 313 313 312 312 312 312 312 312 311 310 310 310 310 310 310 309 309 309 308 308 308 307 306 304 303 305 306 307 307 308 309 309 309 309 309 308 307 306 305 303 302 301 301 301 299 297 295 294 293 291 291 291 292 294 295 295 295 294 294 293 292 290 289 288 287 285 284 283 283 283 282 281 281 281 280 280 279 279 279 278 278 278
313 313 313 313 313 313 312 312 312 312 311 311 310 310 309 309 309 309 309 308 308 308 307 307 307 305 303 303 304 305 307 307 307 307 307 308 308 308 307 305 304 303 301 299 298 298 299 298 297 295 293 292 293 293 293 294 295 295 295 294 294 293 291 290 288 286 286 285 284 283 283 282 282 281 281 280 280 280 279 279 279 278 278 277 277
312 312 312 312 313 312 312 312 312 312 312 311 310 309 309 309 308 308 308 308 307 307 307 306 306 304 303 303 304 305 306 307 307 307 307 306 307 307 306 304 303 302 299 298 296 296 296 296 296 294 292 293 295 296 295 295 295 294 294 293 292 291 289 287 286 285 284 284 283 282 282 282 281 281 280 280 279 279 279 278 278 278 277 277 277
311 311 312 312 312 312 312 312 312 312 312 311 310 309 308 308 308 307 307 307 307 307 306 306 305 304 303 302 303 304 306 307 306 306 305 305 305 305 304 302 301 300 297 295 294 293 293 293 293 293 293 295 296 295 295 295 294 293 292 292 291 289 287 285 285 284 283 283 282 282 281 281 281 280 280 279 279 279 278 278 278 277 277 277 276
311 311 311 311 311 311 311 311 311 311 311 310 310 309 308 307 307 307 306 306 306 306 305 304 304 303 302 303 304 305 306 306 305 305 304 304 304 303 301 300 299 297 294 292 291 291 292 292 292 292 293 295 295 294 294 293 293 292 291 291 289 287 285 284 284 283 283 282 282 281 281 280 280 280 280 279 279 278 278 278 277 277 277 277 276
310 310 310 311 311 311 311 311 311 311 311 310 309 308 308 307 306 306 306 305 305 304 303 303 302 302 302 303 304 304 305 305 304 304 304 303 302 300 298 298 297 295 292 290 291 291 292 292 292 292 293 294 294 293 293 292 292 291 291 290 288 286 284 284 283 282 282 282 281 281 280 280 280 280 279 279 279 278 278 278 277 276 276 276 276
310 310 310 310 310 310 311 310 310 310 310 309 308 307 307 306 305 305 305 304 303 303 302 302 302 302 302 302 302 303 303 304 304 303 303 302 300 298 297 296 295 293 291 291 291 292 292 292 293 293 294 293 292 292 292 292 291 290 289 288 286 285 284 283 282 281 281 281 281 280 280 280 280 279 279 278 278 278 278 278 277 276 275 276 276
310 310 310 310 310 310 310 309 309 309 309 308 307 306 306 305 305 304 304 303 302 302 302 302 302 302 302 302 302 302 303 303 303 302 301 300 298 297 296 295 294 293 292 291 291 291 292 293 293 293 292 292 292 292 291 291 290 289 287 286 285 283 283 282 281 281 281 281 281 280 279 279 279 279 278 278 278 278 278 277 276 275 275 275 275
Wind_Speed
11 10 9 9 8 7 7 7 7 7 7 6 6 5 6 6 7 8 8 8 8 7 7 6 5 5 5 6 6 6 7 9 9 10 12 12 12 13 13 13 11 10 8 4 4 3 1 3 5 6 7 7 7 7 8 8 8 8 8 8 8 8 8 8 8 8 7 7 8 8 8 8 8 8 8 7 7 7 8 8 9 9 10 10 11
13 12 12 11 11 10 9 9 9 9 9 8 8 7 8 8 8 8 9 9 9 9 9 9 8 7 7 7 7 7 8 9 10 11 12 13 14 14 14 14 12 11 8 4 6 5 4 5 4 5 8 8 7 8 8 7 7 7 7 7 7 7 7 7 7 6 7 7 7 6 6 7 7 6 7 7 7 7 7 8 8 9 9 11 12
15 14 13 13 13 12 11 11 11 11 10 10 10 10 10 10 10 10 10 10 11 11 11 11 11 10 9 8 9 9 10 10 11 12 13 14 14 15 15 15 14 11 7 6 7 7 5 5 3 4 6 6 7 8 7 7 7 6 6 6 6 6 6 6 6 5 5 6 5 5 5 5 5 5 5 6 6 6 6 7 7 8 9 11 12
17 17 16 15 14 14 13 13 12 12 12 12 12 12 12 12 12 12 12 12 12 13 13 13 13 12 11 10 10 11 12 12 12 14 15 15 16 16 17 17 16 14 10 9 9 8 7 6 5 5 6 6 6 7 6 5 4 3 4 5 5 5 6 5 4 4 4 4 4 4 4 4 4 4 4 4 4 4 5 6 7 7 8 9 10
19 18 17 17 16 16 15 15 14 14 14 14 14 14 14 14 14 14 14 14 15 15 15 15 15 15 14 13 12 12 13 13 14 15 17 17 18 18 19 18 17 16 14 13 12 11 10 8 7 8 8 7 7 6 5 5 4 3 2 4 3 3 3 3 2 3 4 4 4 3 3 3 3 3 3 2 3 3 4 6 7 7 8 8 8
21 20 19 19 19 18 17 16 16 16 15 16 16 16 16 16 16 16 16 17 17 17 17 17 17 16 16 15 14 15 14 14 15 16 18 19 19 20 20 20 19 19 18 17 16 15 13 10 9 9 9 9 8 8 7 7 7 5 4 4 4 4 4 4 3 4 5 5 4 4 3 3 3 2 1 1 1 3 5 6 7 8 8 8 8
22 20 20 20 20 20 20 19 18 17 17 17 18 17 18 18 17 18 18 18 19 19 19 19 19 19 18 17 17 17 17 16 16 17 18 19 20 21 21 21 21 21 20 19 18 17 16 14 14 13 11 11 10 10 11 10 10 9 7 6 6 6 7 7 6 6 6 6 6 6 5 5 5 4 3 3 3 4 5 6 7 8 8 8 9
23 21 21 21 21 21 21 21 20 19 18 19 19 19 18 19 19 19 19 20 20 21 21 21 21 21 20 20 19 19 19 18 18 18 19 20 22 23 23 24 24 23 23 21 20 19 19 18 18 17 13 12 12 12 12 12 13 12 10 9 8 9 10 10 9 8 8 7 8 8 8 7 7 5 4 4 4 5 6 7 8 8 8 9 10
25 23 22 22 22 21 20 21 21 20 20 21 21 20 19 20 20 19 19 20 21 22 22 23 23 23 23 22 22 22 21 21 20 19 20 21 23 24 25 25 25 25 25 24 23 22 22 21 21 19 17 15 15 16 15 14 14 12 12 12 10 10 12 12 12 12 11 9 9 10 10 9 7 5 4 4 4 5 7 8 9 10 11 11 11
26 25 25 24 24 23 22 22 23 22 22 22 22 22 21 22 21 20 20 21 22 23 23 24 24 25 25 25 25 25 24 24 24 22 21 22 23 25 26 26 26 27 26 26 26 25 25 24 23 22 20 19 18 19 18 17 17 14 15 15 11 12 13 12 13 14 13 11 11 12 11 10 8 6 5 5 6 7 8 9 11 12 13 13 13
30 27 26 25 25 25 25 24 25 25 24 23 23 23 23 22 22 22 23 23 23 24 25 26 26 26 27 27 27 27 27 26 27 26 24 23 24 25 26 26 27 28 28 28 28 28 28 27 26 25 23 22 21 22 21 20 18 14 15 16 13 13 14 12 12 14 14 13 14 13 13 11 8 7 7 6 7 8 9 11 12 14 14 15 16
33 31 30 29 26 26 26 26 26 26 27 27 26 25 24 23 24 26 25 23 23 23 24 26 28 29 28 28 29 29 29 30 30 28 27 27 26 26 27 28 28 29 30 30 30 30 30 29 28 27 26 25 24 24 23 22 20 17 14 14 14 14 14 13 12 12 13 14 14 13 11 9 7 7 8 8 8 9 10 12 13 15 15 16 17
31 31 32 31 28 27 29 29 30 29 30 32 30 29 27 24 26 29 27 24 24 24 23 24 28 30 30 30 31 32 31 32 33 32 31 30 29 29 30 30 30 31 31 32 33 32 32 32 31 30 29 28 28 26 25 24 23 22 17 14 14 14 14 14 12 11 12 11 12 11 9 8 7 7 8 9 9 10 12 13 15 16 16 17 18
33 30 31 31 29 30 31 32 31 30 30 30 30 32 31 29 29 31 31 27 26 27 25 25 27 28 30 31 32 33 34 35 35 35 35 34 33 33 32 33 33 33 33 34 35 35 34 34 34 33 33 32 30 28 27 25 25 26 23 20 17 15 16 16 15 12 11 11 10 9 8 8 8 8 10 10 11 12 12 14 15 16 18 19 18
37 33 32 32 32 32 31 32 32 32 32 32 34 36 36 36 34 33 33 32 31 31 29 27 27 27 29 31 32 31 32 35 37 37 37 37 37 36 35 35 35 35 36 36 37 37 36 37 37 38 37 35 33 31 29 27 28 28 28 27 23 19 19 18 17 15 13 12 11 10 9 8 8 10 12 13 13 12 13 14 14 16 18 18 17
37 36 34 33 35 34 31 31 32 32 34 35 38 39 37 36 35 34 36 37 36 36 33 30 30 29 29 30 29 27 29 34 36 35 36 38 39 39 38 38 38 38 38 38 39 40 39 39 40 40 39 38 36 35 33 31 30 30 30 29 27 25 23 20 19 18 16 15 14 13 11 9 9 10 14 15 14 14 15 15 15 16 17 17 17
36 37 36 36 37 35 32 33 34 33 31 32 34 33 34 35 35 37 38 40 40 37 35 36 36 36 34 32 28 26 29 32 32 32 33 35 36 37 38 39 40 40 40 40 41 41 42 42 42 42 42 40 39 38 36 33 32 31 31 31 29 28 27 24 22 19 18 17 17 17 14 11 10 11 15 17 16 15 16 17 18 17 16 16 17
35 36 37 39 39 35 33 34 36 36 33 34 35 34 35 37 39 41 39 39 41 38 36 39 41 42 41 40 35 32 33 31 29 31 32 32 33 33 34 37 40 41 41 41 41 41 42 43 44 44 44 43 41 41 39 35 32 32 32 32 31 30 29 28 27 23 21 20 20 19 16 13 12 13 16 17 16 17 18 18 18 17 17 17 17
31 33 35 37 37 36 36 37 38 37 35 36 39 39 40 40 44 48 41 34 38 42 42 43 45 45 45 45 42 39 39 38 36 35 33 33 34 33 32 32 34 37 38 39 39 40 42 43 45 46 46 46 44 44 42 37 34 33 33 33 33 31 30 30 31 29 26 24 21 18 15 14 15 16 18 18 18 18 18 17 17 17 17 17 17
28 30 31 32 33 34 36 39 39 39 38 37 38 40 40 41 46 49 43 37 40 46 47 48 49 47 46 46 45 41 40 42 43 42 39 37 38 38 36 34 34 35 36 37 37 39 41 42 44 46 47 47 46 46 45 40 37 35 34 34 34 33 31 31 32 32 30 29 27 23 21 21 21 22 22 21 19 18 17 17 17 18 18 18 19
28 29 29 30 31 31 34 37 38 40 42 40 38 40 40 40 42 43 41 42 47 49 51 50 47 46 45 45 45 43 41 42 46 48 46 43 42 43 41 39 40 40 41 41 40 40 41 41 43 44 46 47 47 48 46 43 40 37 34 34 34 33 32 33 33 32 31 30 30 29 28 26 25 24 23 22 20 19 18 17 17 18 18 19 20
29 29 30 30 31 32 34 37 39 41 43 42 42 41 38 36 38 40 41 45 49 52 53 49 46 47 46 43 44 46 46 47 48 48 50 49 46 47 45 42 44 43 43 42 42 42 41 40 40 40 43 45 45 47 47 44 41 38 35 34 34 33 32 34 34 32 30 29 28 28 27 25 25 24 23 22 21 19 19 18 18 19 19 20 21
30 30 30 30 31 31 33 35 37 39 40 41 40 38 37 39 42 45 48 50 51 53 53 50 49 50 49 47 48 50 51 51 50 48 50 52 49 48 46 43 44 45 44 43 42 43 41 39 37 36 37 39 40 42 44 44 41 38 36 34 33 33 33 34 33 31 29 27 27 26 25 24 24 23 23 22 20 20 20 19 18 19 19 20 21
29 29 29 29 29 29 29 31 32 34 35 35 34 33 37 41 41 42 44 44 46 47 47 46 47 50 51 51 51 51 52 53 53 50 52 53 50 49 48 44 43 44 45 43 42 44 43 39 38 36 34 36 37 38 40 41 40 38 37 35 34 33 33 33 32 30 29 27 26 24 23 23 23 23 23 22 22 22 22 20 18 18 19 21 22
27 27 26 25 25 26 26 27 28 29 30 31 32 32 36 38 39 41 42 42 42 43 44 46 48 50 52 52 51 52 53 53 53 52 53 52 50 50 50 47 45 45 46 45 45 46 45 41 39 36 34 35 36 36 37 37 38 39 38 37 35 34 33 33 32 31 30 28 26 24 22 22 23 24 24 25 25 25 24 22 20 20 21 22 23
24 24 23 22 23 23 24 25 26 27 27 29 32 33 36 38 40 43 44 45 45 45 47 49 49 50 49 49 49 51 52 52 53 54 55 54 53 54 52 49 47 47 47 46 46 48 46 42 40 37 34 34 34 34 34 33 35 38 39 38 37 34 33 33 32 31 30 28 25 23 22 24 26 27 27 28 27 25 24 23 22 22 22 23 25
22 22 21 22 22 22 23 24 25 27 28 28 30 32 35 37 40 42 44 46 47 48 50 50 50 50 50 49 50 51 51 51 52 53 53 53 54 54 54 50 45 46 47 47 48 50 48 44 40 36 34 33 33 32 32 31 32 35 38 38 37 35 33 33 32 31 29 26 24 23 25 27 29 30 30 28 25 24 24 23 22 22 23 25 27
21 21 20 21 22 22 23 24 25 26 28 29 30 31 33 35 38 42 44 46 46 47 48 49 49 48 49 51 51 50 48 48 50 52 50 49 50 52 55 53 46 45 46 45 48 50 47 44 39 34 32 31 30 29 28 29 30 32 36 37 37 35 33 32 32 30 28 26 25 26 28 30 31 32 30 26 23 23 23 22 22 23 24 26 28
20 20 20 21 21 22 22 23 24 25 27 29 30 31 33 35 37 39 41 42 43 44 46 48 49 49 50 51 49 46 46 47 53 55 50 45 45 48 53 54 50 48 44 42 46 47 43 40 36 31 30 29 27 25 25 26 27 29 34 37 37 34 33 32 31 30 29 28 28 30 31 31 32 31 26 23 22 22 22 22 22 23 25 27 29
20 20 20 20 20 21 22 23 23 25 26 27 29 30 32 34 35 37 39 40 42 45 46 48 49 48 48 47 44 44 46 49 54 56 51 45 44 45 48 52 51 50 48 45 46 44 40 38 35 30 29 28 25 24 23 24 25 27 33 37 36 34 34 33 32 31 30 30 31 33 32 32 31 27 23 21 21 20 20 21 22 24 25 28 30
20 20 21 21 21 22 23 23 24 24 25 26 28 29 31 32 33 35 37 39 41 44 44 45 45 43 43 42 43 43 44 46 49 51 51 47 45 43 44 48 49 49 49 48 47 45 41 38 35 31 29 27 25 24 23 23 24 27 33 36 35 34 33 33 32 31 31 32 34 33 32 30 26 22 20 20 19 19 20 21 22 25 27 30 31
21 22 22 22 23 24 24 25 25 25 26 27 27 29 30 31 32 34 35 35 38 39 40 40 41 41 41 41 42 42 40 40 42 44 45 44 42 42 42 44 46 47 48 47 48 48 45 41 38 35 32 29 26 24 22 22 24 27 32 35 35 34 34 33 32 32 33 34 33 31 29 25 20 18 19 18 18 19 20 21 24 27 29 30 31
23 24 25 25 26 27 27 27 26 27 27 27 28 29 30 31 32 33 34 33 35 36 36 37 37 37 39 42 43 43 41 40 39 38 39 39 39 41 42 42 43 46 47 47 49 49 47 45 41 37 33 30 26 24 22 23 24 27 31 35 35 34 34 33 33 34 34 32 30 27 24 19 17 18 18 17 17 19 21 23 26 28 29 29 30
24 26 27 29 30 31 31 30 29 28 28 28 29 30 31 32 33 34 34 34 34 35 36 36 35 34 36 39 43 44 42 41 40 39 38 39 41 43 43 42 44 45 45 46 48 47 46 44 40 36 32 28 25 23 23 23 25 26 31 34 34 34 33 33 33 32 30 28 26 23 19 16 17 17 16 17 18 20 22 25 26 27 28 29 30
25 27 29 31 32 34 34 33 32 31 30 30 30 31 32 33 34 34 34 34 34 35 36 36 34 33 33 35 38 41 43 43 43 43 43 44 44 43 42 41 42 43 43 44 45 45 45 43 39 36 33 29 25 23 23 23 23 25 29 32 32 32 31 30 29 27 26 25 22 18 16 16 16 16 16 17 19 22 24 25 26 27 28 29 29
26 27 29 31 33 35 35 34 34 33 33 33 33 33 33 34 35 35 35 35 35 35 36 36 35 33 33 34 34 35 37 41 42 43 43 43 42 41 40 40 39 39 40 40 41 42 42 41 37 34 32 28 25 23 23 23 24 25 27 28 28 27 26 25 25 24 23 21 17 15 15 15 15 16 17 18 20 22 23 24 25 26 27 27 26
28 28 30 32 33 35 35 35 35 35 35 35 36 35 35 35 35 36 36 37 37 36 36 36 35 34 34 35 35 33 34 37 39 41 41 40 40 39 39 38 37 37 37 38 39 39 39 38 36 33 29 26 24 23 24 24 25 27 25 24 23 23 23 24 23 22 20 17 15 14 15 15 15 16 17 19 20 21 23 24 25 25 25 24 24
29 30 31 33 34 35 36 36 36 37 36 36 36 36 36 36 36 36 37 38 37 37 36 36 36 36 36 36 36 35 36 37 38 39 39 39 39 39 38 36 35 35 35 36 37 37 37 36 35 32 28 25 24 24 24 24 24 25 24 23 23 23 23 22 21 19 17 15 14 14 14 15 16 16 18 19 20 21 23 23 23 23 22 22 23
31 31 32 34 35 36 37 38 38 38 37 37 36 36 36 36 36 36 37 38 38 38 37 37 37 37 37 37 37 38 38 39 38 38 39 39 40 40 39 37 35 35 35 34 35 36 36 35 34 31 28 26 26 25 25 25 24 23 23 24 24 24 22 20 19 17 16 15 14 14 15 15 15 16 17 18 20 21 21 21 20 20 21 21 22
33 33 34 35 36 37 37 38 38 37 37 37 36 35 35 36 36 37 38 39 39 39 38 37 37 37 37 37 37 38 38 39 38 38 39 40 40 41 40 38 36 35 35 34 34 35 36 35 33 31 29 29 28 27 28 29 28 25 24 24 23 22 20 18 18 17 16 14 14 13 14 14 14 16 17 18 20 20 18 18 19 19 20 21 22
34 35 35 36 37 37 37 37 36 36 36 36 34 34 35 35 36 37 38 39 40 40 39 38 37 36 37 37 37 37 36 36 37 36 37 37 38 39 38 37 35 35 35 35 35 35 35 35 34 33 32 32 32 31 30 29 28 27 26 24 22 19 18 17 17 16 15 14 12 12 13 13 14 16 18 18 17 17 16 16 18 19 20 21 23
33 34 35 36 37 38 38 37 35 34 34 33 32 32 33 34 35 37 38 40 40 40 39 39 37 36 36 37 37 36 36 36 36 36 34 34 35 35 35 35 34 33 32 34 36 35 35 36 37 36 35 34 32 30 28 27 27 26 24 23 21 19 19 18 17 17 15 13 11 10 12 15 16 17 16 15 14 14 14 16 18 20 21 22 22
32 33 34 35 36 37 38 38 37 36 35 32 30 30 31 32 35 36 38 39 40 39 39 39 38 36 35 35 35 34 35 35 35 35 33 32 33 33 34 35 33 31 29 30 33 34 35 36 36 36 35 32 29 27 27 27 27 26 23 21 19 19 19 18 17 16 13 10 9 10 13 17 17 14 13 13 13 13 15 16 19 20 21 21 22
34 34 34 34 35 35 36 38 38 38 36 34 31 30 30 31 33 35 37 38 39 39 40 39 38 36 35 34 34 34 34 34 35 35 35 34 33 33 33 32 31 30 28 26 27 29 32 35 36 34 31 28 26 27 28 28 26 24 22 20 19 19 18 16 15 14 11 9 10 12 13 15 14 12 11 12 13 14 15 17 19 20 20 20 21
35 35 35 35 35 35 35 36 37 37 37 35 33 31 31 31 31 33 36 38 39 39 39 38 37 35 34 33 34 34 34 34 34 34 34 33 34 33 32 31 30 29 27 25 23 23 26 31 33 32 27 25 25 27 28 27 24 22 20 20 20 18 16 14 13 11 10 10 12 12 11 12 12 10 10 12 13 14 16 17 17 19 19 19 21
37 36 36 36 35 35 35 35 36 37 37 36 34 32 32 31 31 32 35 37 39 40 39 38 36 34 33 33 34 34 34 34 33 31 31 31 33 34 33 31 31 29 27 25 24 23 24 26 28 28 25 24 24 25 26 24 20 18 18 18 18 16 13 12 11 11 12 12 12 11 10 10 10 9 10 11 13 14 16 16 16 17 19 20 22
39 39 39 38 37 37 36 36 37 37 37 36 35 33 32 31 30 31 34 37 39 40 39 37 35 34 32 32 33 34 35 34 33 33 34 34 35 35 33 32 31 29 27 25 23 24 24 24 25 26 26 25 24 23 23 22 19 17 16 15 14 13 12 11 11 12 13 12 10 9 9 9 10 9 9 11 13 14 15 15 15 16 19 21 22
40 41 41 41 41 40 39 39 39 39 38 36 35 34 32 31 30 31 34 36 38 39 38 36 34 32 31 32 33 34 35 34 33 33 34 35 35 34 33 32 31 28 26 24 23 24 25 26 28 28 26 25 24 22 22 22 20 18 16 15 14 12 11 11 13 13 12 9 8 9 8 9 10 10 10 11 13 14 14 14 14 16 20 21 22
40 41 41 42 42 42 41 40 40 40 39 37 35 34 32 31 30 32 34 35 37 38 37 34 32 31 31 32 33 34 34 33 32 34 35 35 34 32 31 31 30 29 28 27 27 27 27 27 27 26 26 26 23 20 20 20 18 16 14 13 12 11 11 12 13 11 9 8 8 8 8 8 10 11 11 12 14 14 14 14 14 16 19 21 22
41 40 41 42 42 42 41 40 39 39 39 37 34 33 32 30 30 31 33 34 35 36 35 33 31 30 31 32 32 33 34 34 35 36 36 34 32 30 30 31 31 31 32 32 31 30 28 27 27 27 28 27 24 20 18 17 15 14 13 11 11 12 12 12 10 8 9 9 8 8 8 9 10 12 12 13 14 14 14 15 16 17 18 19 22
41 41 41 42 42 42 41 40 39 38 38 36 34 33 31 30 29 31 32 33 35 35 34 33 32 31 32 32 32 33 35 36 36 35 34 32 30 29 30 32 32 33 34 34 33 33 32 31 30 29 26 25 22 19 17 16 15 14 13 11 12 12 12 10 8 7 8 9 8 7 8 9 10 12 13 13 14 15 15 17 18 18 18 19 21
Wind_Direction
256 257 257 251 244 242 242 243 248 253 254 255 253 251 253 252 251 247 247 249 246 245 248 250 248 245 242 238 241 247 249 253 252 236 229 236 239 234 236 247 248 241 259 269 203 222 246 144 136 138 143 138 138 137 134 133 129 129 127 126 124 122 121 118 116 114 110 108 104 102 101 98 97 96 92 86 83 77 68 63 60 53 41 31 25
255 256 256 254 249 245 244 245 246 249 250 254 253 250 250 250 252 251 252 253 254 253 253 257 255 251 247 240 239 245 249 256 256 238 234 241 245 248 250 253 248 245 260 236 187 192 174 167 168 159 154 150 148 145 144 143 141 141 137 134 133 131 130 128 125 122 119 116 111 109 104 97 95 95 92 87 82 74 66 55 49 40 23 16 14
253 255 254 252 250 247 247 246 249 251 251 252 253 252 251 250 249 249 251 253 254 255 254 257 259 257 253 246 240 240 245 251 249 241 244 247 245 250 255 255 251 248 245 214 198 188 190 207 205 185 171 163 161 159 159 157 155 154 150 148 146 143 142 139 136 133 129 126 123 118 111 103 101 97 89 87 79 66 59 45 31 24 13 8 6
248 249 252 251 248 248 249 248 249 252 254 255 253 252 251 251 250 248 247 246 248 252 253 255 258 260 258 255 250 244 243 245 242 239 245 248 244 246 252 255 253 250 237 221 217 206 215 229 208 194 185 176 177 177 178 179 185 184 164 162 161 160 154 149 150 154 146 140 141 132 121 117 111 101 91 83 73 54 38 26 13 9 4 359 1
247 244 247 249 248 246 248 249 251 252 254 256 256 255 254 254 254 253 251 249 249 250 252 254 256 259 259 259 258 254 249 245 244 242 243 246 247 248 252 255 252 252 247 235 233 234 241 237 209 195 191 198 200 197 216 226 240 267 217 192 197 193 176 177 188 183 171 160 163 163 149 144 131 107 92 73 57 34 9 2 355 354 351 349 353
249 243 241 244 247 247 247 246 248 252 255 258 259 258 257 257 257 257 256 255 254 253 253 255 257 259 260 260 260 260 257 250 246 245 247 248 251 253 254 255 252 252 254 249 246 250 253 243 228 226 224 229 218 210 240 263 268 270 253 226 227 242 232 236 237 201 188 183 193 204 197 193 186 167 120 352 354 351 345 343 340 342 344 345 347
253 247 242 242 244 247 249 247 246 250 255 259 262 263 261 261 260 259 260 260 259 258 256 256 257 258 259 261 261 261 262 259 252 247 248 250 252 255 255 256 254 254 255 254 252 252 256 252 252 259 253 246 238 227 235 251 266 268 260 240 228 235 234 246 257 233 222 219 226 237 235 233 231 233 251 272 301 318 328 330 329 335 338 340 339
257 253 249 248 247 247 248 250 248 248 254 258 260 263 265 266 264 263 262 263 263 262 261 260 260 261 261 262 262 263 264 263 260 252 249 250 252 254 255 256 257 257 256 255 253 251 255 256 259 265 256 246 249 251 245 245 257 260 257 251 235 233 238 246 255 250 250 247 241 247 251 252 250 251 256 269 294 308 317 320 320 326 328 329 329
260 260 257 256 257 256 254 254 251 248 251 255 259 262 264 266 267 267 267 267 267 265 264 263 263 264 264 264 264 264 264 264 263 255 248 247 248 251 253 256 257 258 258 259 258 255 257 258 260 261 255 250 252 260 261 252 250 243 246 248 223 225 241 244 250 253 254 258 256 255 256 258 258 258 260 276 294 301 306 309 310 312 313 317 323
262 260 258 258 260 263 265 265 263 259 254 254 256 257 259 261 261 265 270 271 271 269 267 266 264 264 264 264 264 263 263 263 263 259 251 248 246 246 249 253 255 257 258 259 259 259 259 259 258 257 256 258 258 262 266 261 253 240 243 248 225 226 240 233 238 250 254 260 263 262 262 261 260 263 267 280 291 295 299 303 302 303 307 310 314
270 266 261 258 256 257 261 263 265 266 266 264 260 258 261 262 261 263 268 270 270 269 268 266 264 263 262 262 263 263 262 262 262 260 256 252 248 247 248 250 252 254 255 256 257 258 260 259 257 256 256 259 263 267 269 268 259 241 241 248 236 236 243 230 225 237 248 256 260 261 262 263 265 273 281 285 285 290 295 297 299 301 305 309 312
269 270 269 267 261 258 261 263 262 261 264 266 264 264 265 267 271 268 268 274 273 266 263 264 264 263 262 263 263 262 263 262 261 259 258 254 251 249 249 250 251 251 251 253 255 257 258 257 254 253 254 259 265 271 272 270 261 247 244 244 237 240 244 237 226 227 235 244 252 255 253 255 261 273 286 288 285 288 291 293 296 300 304 307 311
265 264 268 271 269 266 266 265 261 258 261 264 263 264 262 266 274 266 259 268 277 272 265 261 262 262 262 262 262 262 262 262 261 260 259 256 254 251 249 249 250 250 251 252 254 255 255 252 249 248 251 258 264 268 270 268 260 255 250 239 237 242 242 241 237 232 230 231 240 244 240 245 255 272 285 288 289 290 291 294 296 299 302 305 308
271 269 269 271 272 269 268 268 265 261 263 267 266 263 258 259 265 261 252 254 267 273 265 259 261 263 264 262 261 262 262 262 262 261 260 258 256 254 252 251 251 251 252 252 252 252 252 249 246 246 249 254 260 264 267 267 261 257 253 248 248 246 243 248 248 241 237 234 233 234 239 249 261 279 288 288 290 291 293 295 296 298 300 303 307
271 272 268 266 269 268 266 269 267 262 262 267 266 260 254 253 256 259 256 250 256 262 259 260 265 264 260 256 256 259 259 260 261 262 261 259 258 256 254 253 252 251 252 253 252 251 251 249 247 247 249 252 256 261 265 267 262 258 256 257 258 251 244 248 252 248 248 249 244 241 243 252 266 283 292 292 290 292 294 296 298 300 300 303 306
269 273 271 268 271 273 273 272 269 264 262 264 263 260 258 259 261 264 261 256 257 260 258 258 262 262 257 249 248 251 254 259 264 267 265 261 259 259 257 255 253 251 252 255 254 251 251 250 249 249 250 251 255 259 262 264 261 257 256 257 259 256 249 245 247 251 255 255 256 257 255 257 267 283 297 297 292 293 294 295 299 301 302 305 308
259 265 269 269 269 272 274 271 271 273 268 265 265 265 266 267 268 267 264 262 262 262 262 260 262 266 262 251 244 244 254 263 267 270 269 264 261 261 260 258 254 252 254 256 255 253 253 252 251 250 250 251 255 258 258 258 257 256 256 255 256 257 254 247 242 245 252 255 258 258 259 266 270 281 296 297 293 293 294 294 298 301 305 307 309
255 255 259 263 268 272 269 263 268 275 275 270 267 268 271 269 268 268 267 266 262 259 264 266 263 263 261 256 251 252 259 263 263 268 272 269 264 262 262 259 256 254 256 257 258 260 259 256 254 252 251 252 254 256 255 253 253 253 253 254 254 254 254 251 246 242 242 245 247 249 256 267 272 282 292 292 289 289 291 294 298 302 305 307 310
262 259 256 258 263 267 268 268 271 275 275 271 266 268 273 272 271 268 265 267 263 259 266 267 261 261 262 258 254 257 262 260 259 264 268 270 269 266 264 260 257 257 258 259 261 263 263 261 258 255 253 253 254 256 254 250 248 249 249 251 253 253 251 250 249 247 243 242 241 245 255 264 271 281 283 282 283 287 292 297 300 303 306 309 310
268 266 264 261 259 258 261 265 270 272 273 272 268 269 273 272 272 268 263 267 266 262 265 263 260 265 267 261 255 259 265 263 261 262 262 264 267 265 265 264 260 261 263 263 263 261 261 262 260 258 257 255 255 255 252 250 248 248 248 248 250 251 249 248 248 249 249 248 247 252 261 266 271 275 274 275 279 284 290 295 300 305 308 309 310
273 271 270 269 266 262 259 260 263 266 271 274 272 272 272 270 271 268 265 271 271 266 265 263 266 272 271 265 261 261 264 263 261 260 259 259 262 263 265 266 263 265 269 269 266 264 261 262 261 260 260 258 256 256 255 253 251 249 246 246 247 248 248 248 247 248 250 250 251 255 261 264 266 267 268 270 275 280 287 294 300 304 307 309 309
277 275 273 271 269 265 261 259 260 262 267 271 271 271 270 267 267 267 266 270 272 268 265 265 268 271 269 266 263 260 260 260 259 262 261 257 259 263 264 266 267 269 274 274 272 270 266 265 265 263 263 262 258 257 258 257 254 249 245 243 244 247 248 247 246 247 249 249 251 253 256 258 260 261 264 268 273 278 283 289 296 301 306 308 307
278 276 275 273 271 267 264 262 262 262 263 265 267 270 271 269 266 265 263 265 268 268 265 263 262 263 263 262 260 259 259 260 263 268 267 260 259 263 264 268 271 272 274 276 277 276 271 269 270 267 264 264 261 260 259 258 254 247 242 241 242 245 246 245 245 247 248 247 248 249 251 253 255 260 264 268 271 274 277 285 295 303 306 306 306
277 275 274 274 273 272 270 267 266 266 267 268 269 268 267 267 266 266 266 268 270 269 266 266 267 266 265 263 263 263 264 267 268 270 271 266 263 266 266 268 271 272 273 275 277 278 273 270 271 270 265 263 263 262 259 257 253 245 240 240 241 242 243 243 245 247 246 245 245 245 248 251 257 262 264 265 267 269 273 284 296 301 302 304 306
274 274 275 275 273 271 269 268 267 267 269 270 269 265 261 261 263 265 267 270 272 272 270 272 274 273 270 267 267 267 267 269 269 269 271 269 265 264 265 266 269 272 273 273 276 276 272 269 270 270 267 264 264 263 260 258 254 246 240 238 238 239 240 242 244 245 244 243 243 244 248 254 260 261 261 263 266 270 275 285 293 294 296 300 303
272 273 273 271 268 266 265 265 265 265 265 263 263 262 261 262 263 265 267 270 272 273 273 274 274 272 272 270 269 268 269 270 270 270 272 271 267 266 266 266 268 271 270 271 274 273 271 271 270 269 270 270 268 267 264 262 258 250 241 237 236 235 237 240 242 243 243 243 243 246 251 256 257 257 261 267 271 277 283 289 292 293 295 297 298
271 270 269 267 265 264 262 262 261 262 262 261 259 258 258 259 261 262 264 266 268 268 268 270 270 270 271 271 271 272 272 273 273 272 272 271 270 269 266 263 264 269 270 271 272 272 272 272 270 271 273 274 273 271 268 265 260 251 241 235 234 233 233 236 239 241 240 240 242 246 251 254 256 260 267 274 280 286 289 292 294 296 297 298 299
267 266 265 264 263 262 261 260 260 260 260 260 259 258 256 256 256 257 258 260 262 264 266 268 269 270 270 271 272 272 273 275 274 273 272 271 271 271 266 260 261 267 269 270 270 271 273 271 269 273 273 271 271 270 267 264 259 249 238 231 231 232 232 234 236 236 237 238 241 246 252 256 259 266 273 281 287 290 292 295 298 299 300 302 303
265 264 264 262 262 262 261 260 260 260 260 260 260 260 260 260 260 260 261 262 262 263 264 264 265 266 267 268 269 271 274 276 275 273 270 269 272 271 268 265 263 261 261 264 268 270 273 272 271 272 270 267 268 267 265 263 257 246 234 228 229 230 231 232 232 232 234 237 243 250 256 259 263 270 278 285 289 291 295 297 299 300 302 303 302
263 261 261 261 261 261 262 262 261 261 261 262 262 263 263 264 266 267 268 267 266 265 264 264 264 265 266 267 267 268 271 272 273 272 266 264 271 273 273 272 266 259 258 262 268 270 271 271 272 270 269 268 267 266 266 263 254 240 229 226 226 227 228 228 229 232 234 239 247 253 257 260 266 274 282 287 290 292 295 298 300 302 301 299 299
261 261 261 261 261 260 260 262 263 263 264 264 264 265 266 268 270 272 272 271 271 272 271 269 269 268 266 265 265 266 270 273 273 270 264 263 270 275 277 276 270 263 262 262 264 268 269 268 267 268 269 269 267 266 265 259 246 232 225 224 224 223 224 226 228 232 236 243 249 253 258 263 270 279 284 285 288 292 296 299 300 299 297 298 299
263 262 260 260 260 261 262 263 264 265 266 268 269 269 271 274 276 277 277 276 275 276 277 275 273 271 266 263 262 264 269 274 273 270 266 267 273 278 279 278 273 267 264 262 261 264 265 263 262 265 266 265 265 264 259 250 238 226 221 221 222 222 222 224 228 234 241 247 251 254 260 266 274 279 279 283 289 293 296 297 296 296 296 297 298
273 272 270 268 266 265 264 264 265 267 269 272 274 275 277 280 282 283 284 284 282 283 282 280 277 274 268 262 260 262 266 271 273 271 271 272 275 278 276 276 274 268 265 264 263 262 260 258 259 262 262 261 260 258 251 242 234 224 217 217 220 221 221 224 231 239 245 248 252 256 261 268 273 273 277 284 290 292 294 295 295 295 296 296 296
283 283 282 281 279 276 273 270 269 269 272 275 277 279 281 283 285 287 288 288 287 286 284 282 279 279 275 266 261 261 263 267 270 271 273 276 278 278 275 275 275 271 268 267 264 260 257 256 258 259 259 258 255 250 245 239 234 226 218 215 217 219 222 227 234 241 245 248 252 256 261 266 267 271 280 286 289 291 292 294 294 295 295 295 296
283 284 284 284 282 280 279 277 276 275 275 277 278 279 282 284 286 288 288 289 288 287 285 282 278 276 277 273 267 263 262 264 267 269 272 275 277 276 275 275 275 274 272 268 264 260 256 256 258 258 256 254 250 246 241 235 230 223 216 214 217 220 225 231 236 240 244 247 250 254 258 262 267 274 281 284 287 290 291 292 293 293 294 295 296
279 280 281 281 280 278 278 278 279 280 280 279 279 280 281 284 286 287 288 288 288 288 286 282 277 271 272 274 272 268 267 267 269 270 272 273 275 275 275 277 277 276 275 271 265 261 257 255 256 256 253 249 245 241 236 229 221 217 216 217 220 223 227 231 234 238 241 243 247 251 256 262 268 273 278 283 287 289 289 290 291 292 293 295 298
276 276 276 276 276 277 278 279 280 279 280 280 281 281 282 284 286 287 288 288 288 289 287 282 276 268 266 268 270 269 269 269 269 271 272 273 274 274 275 277 277 276 275 271 266 260 255 254 255 252 246 242 238 233 229 225 219 212 213 216 218 221 225 228 231 234 237 241 245 249 255 261 266 272 279 284 286 286 287 289 290 291 293 296 301
282 279 277 276 277 278 279 279 280 280 280 281 281 282 283 284 285 286 288 288 289 289 288 284 277 269 264 264 266 266 266 267 269 270 272 274 276 275 275 276 276 274 271 268 265 259 254 254 253 248 242 236 229 223 217 216 216 211 206 206 212 219 224 225 228 232 236 239 243 247 254 259 266 275 281 283 283 284 286 288 289 291 294 300 305
292 290 288 286 284 283 283 282 281 281 282 282 282 283 283 284 285 286 287 289 289 288 287 285 280 271 265 263 264 264 264 265 268 270 272 273 273 273 273 274 273 271 268 265 262 257 252 249 245 240 237 229 222 218 209 203 206 210 208 209 214 218 220 222 228 233 236 238 240 245 253 262 272 278 279 279 281 283 285 288 289 292 299 304 308
298 295 293 292 290 288 288 288 286 284 282 280 281 281 282 283 284 286 287 288 289 289 287 285 281 273 266 263 264 266 266 266 267 270 272 272 270 269 268 268 269 268 265 262 258 253 249 244 238 233 230 223 216 212 207 203 203 205 209 213 217 218 219 223 230 233 234 235 238 246 257 268 274 275 276 277 281 284 286 289 292 298 306 312 316
303 300 296 294 293 293 293 292 291 288 284 281 281 281 281 282 284 286 287 288 289 289 288 286 283 275 266 262 263 265 266 266 267 271 273 272 271 268 266 266 267 266 263 258 252 248 243 237 231 226 222 218 215 211 208 207 207 206 208 211 213 216 220 225 229 231 232 234 239 251 263 269 268 269 273 277 281 284 289 295 301 309 316 320 322
307 303 299 296 295 294 295 295 294 292 289 287 287 286 285 285 285 286 286 287 287 288 287 286 283 277 269 264 263 263 264 264 266 271 273 273 272 270 268 267 265 264 262 257 250 245 239 234 229 223 217 213 212 210 205 204 205 207 210 210 211 215 219 221 225 228 230 234 244 256 262 263 264 269 277 282 286 292 301 309 314 318 321 322 324
310 305 303 301 299 297 296 296 296 295 294 293 291 289 286 284 284 284 285 285 286 286 286 285 284 279 272 267 264 265 266 265 266 269 273 274 274 271 269 267 264 259 256 254 251 245 238 232 225 219 215 209 205 203 201 201 203 205 208 210 213 217 217 217 222 228 229 233 246 250 251 260 270 279 285 290 297 308 315 318 318 318 319 323 326
313 310 308 305 303 302 300 298 297 297 297 296 294 290 285 283 282 283 283 283 284 285 285 285 283 279 273 268 265 264 265 266 267 268 271 273 275 273 269 266 262 256 251 249 248 245 240 231 219 213 211 205 199 199 200 201 201 202 204 210 214 215 214 213 220 231 237 241 250 250 251 266 281 289 293 299 311 318 318 318 317 316 319 324 326
314 313 311 309 307 306 304 302 300 299 299 298 297 293 288 285 283 282 282 282 283 284 284 284 283 279 272 267 266 265 266 267 266 267 268 270 271 273 270 263 256 250 244 241 240 242 244 235 221 211 204 197 197 199 199 199 201 201 204 209 211 209 208 207 214 231 246 251 254 258 265 279 289 293 301 312 318 317 315 314 315 316 320 324 325
312 311 310 308 307 305 303 303 301 300 299 298 296 293 290 287 284 281 281 282 282 282 282 283 282 278 271 266 265 266 267 267 266 267 271 272 271 271 267 258 251 243 236 232 230 230 233 233 223 210 198 194 197 197 195 197 200 201 204 207 205 201 200 205 215 230 243 251 257 266 281 290 292 297 310 316 313 311 312 313 315 318 320 322 326
312 311 310 308 306 304 302 301 299 298 298 297 295 292 289 286 283 280 279 279 279 280 281 281 280 278 274 269 266 267 268 268 269 272 274 273 271 268 262 253 246 238 230 225 222 220 219 219 211 200 195 196 197 193 194 196 198 200 202 202 199 196 198 209 224 233 239 249 263 275 288 292 293 302 312 310 308 309 313 315 316 318 319 323 328
313 312 311 309 308 306 304 302 300 298 297 296 295 292 289 285 281 277 276 276 277 279 281 281 280 278 275 271 269 269 269 269 270 273 273 270 268 264 256 248 240 230 219 212 209 208 208 205 200 197 197 198 193 188 191 195 198 199 199 197 197 197 201 213 228 239 245 256 273 281 287 288 290 301 309 308 310 314 318 317 315 317 321 327 332
315 314 312 310 309 308 306 304 302 300 298 296 294 292 289 285 280 276 274 275 276 278 281 282 280 277 274 272 271 271 270 270 271 272 271 269 265 258 250 242 233 218 205 199 200 203 204 203 202 200 198 195 191 186 187 192 196 198 199 200 200 199 206 218 229 244 258 270 279 281 283 286 292 303 312 314 317 320 320 317 315 321 328 332 333
316 315 313 311 310 309 307 305 303 300 298 297 295 292 289 285 280 276 274 274 275 277 279 280 281 278 275 273 272 271 271 270 270 270 268 265 260 252 244 235 223 208 199 197 199 201 202 201 198 194 190 189 190 189 187 190 193 195 199 203 203 205 213 222 229 244 261 273 279 278 281 289 298 309 316 318 320 322 320 318 321 327 332 333 333
315 315 314 313 312 310 309 307 304 301 299 297 295 293 290 285 280 276 274 273 274 276 276 277 277 277 275 274 272 270 270 271 271 269 266 261 254 247 238 228 216 205 200 199 199 197 194 191 188 185 182 183 187 189 188 188 190 192 197 202 207 212 217 221 229 244 258 269 276 279 289 297 303 312 317 318 320 322 321 322 325 329 332 333 333